Torna al catalogo

STARLINK-34469

AttivoComunicazioniVLEO
NORAD 64615·PAYLOAD·🇺🇸 United States

Lanciato Jun 25, 2025 da Cape Canaveral Space Force Station

Loading…

Prossimi Passaggi (prossime 24 ore)

TLE

AggiornatoSource: CelesTrak SupGP

Epoca: Sep 15, 2026, 02:48 UTC

1 64615C 25137X   26258.11715278 -.00033807  00000+0 -99907-3 0  2582
2 64615  53.1594 174.5636 0001397  82.6473  88.4410 15.34400449    13

Traccia STARLINK-34469 in tempo reale con AllMySat

Download on the App Store